Location: Cabo di Oristano
(39.8500°N, 8.4333°E)
Time: 16:13:26
(UTC+00:00)

Cosmos 2026 Rocket - Pass Details

Date: 31 January 2023
Orbit: 940 x 999 km, 82.9° (Epoch: 30 March)

Event Time Altitude Azimuth Distance (km) Brightness Sun altitude
Rises 05:17:24 0° 189° (S) 3,613 7.0 -15.3°
Reaches altitude 10° 05:19:54 10° 191° (S) 2,665 6.3 -14.8°
Maximum altitude 05:25:59 78° 277° (W) 967 3.9 -13.6°
Drops below altitude 10° 05:32:04 10° 4° (N) 2,663 6.2 -12.5°
Sets 05:34:33 0° 6° (N) 3,611 6.9 -12.0°
